星链-32229 (STARLINK-32229)

导读

STARLINK-32229是美国SpaceX公司于2024年8月12日发射的星链(Starlink)低轨互联网卫星,属于星链卫星互联网星座的组成部分。星链项目通过部署大规模低轨卫星群,旨在为全球尤其是偏远无基础设施覆盖区域提供高速、低延迟的宽带互联网接入服务,STARLINK-32229的入轨进一步扩充了星链星座的服务覆盖能力与网络容量。

基本信息
目录编号:
60436
目录名称:
STARLINK-32229
国际标识:
2024-144M
轨道中心:
EARTH
卫星名称:
星链-32229 (STARLINK-32229)
卫星全名:
星链-32229 (STARLINK-32229)
卫星状态:
在轨 (已飞行674 天)
发射日期:
2024-08-12 UTC
国别 :
美国 (US)
星等 :
--
轨道信息
数据来源 国际轨道数据 AOE轨道数据
星历时间 2026-06-17T10:33:00+0800
20小时前
查看轨道信息
2026-06-14T18:00:00+0800
3天前
查看轨道信息
半长轴 6840.878km 6840.887km
偏心率 0.0001378 0.0001038
轨道倾角 53.161° 53.158°
近地点辐角 94.671° 82.227°
升交点赤经 113.697° 126.273°
平近点角 265.445° 172.824°
近地点 461.798km 462.039km
远地点 463.684km 463.461km
周期 93.849分钟 93.849分钟
每日圈数 15.343876 15.343844
详细信息
卫星平台:
Starlink v2.0 mini
运营商:
太空探索技术公司
运营商所在国:
美国
制造商(研发单位):
太空探索技术公司
制造商所在国:
美国
使用方式:
暂无
卫星简介
星链(Starlink)计划是由太空探索技术公司(SpaceX)提出的一个巨型低轨卫星互联网星座项目,计划在2019年至2024年间在太空搭建由约1.2万颗卫星组成的“星链”网络,其中1584颗将部署在地球上空550千米处的近地轨道,并从2020年开始工作。该卫星仍在工作。
2D轨道图
3D轨道图
轨道高度分析图
轨道倾角分析图
轨道综合分析图
查看轨道综合分析图